SCP
0 0 1 1 1 1 1 1 1 1 1 0 0 0 0 0 0 0 0 0 0 0 0 0 0 0 0 0 0 0 0 0 0 0 0 0 0 0 0 0 0 0 0
1 1 1 1 1 1 1 1 1 1 1 0 0 0 0 0 0 0 0 0 0 0 0 0 0 0 0 0 0 0 0 0 0 0 0 0 0 0 0 0 0 0 0
1 1 1 1 1 1 1 1 1 1 1 1 0 0 0 0 0 0 0 0 0 0 0 0 0 0 0 0 0 0 0 0 0 0 0 0 0 0 0 0 0 0 0
1 1 1 1 1 1 1 1 1 1 1 0 0 0 0 0 0 0 0 0 0 0 0 0 0 0 0 0 0 0 0 0 0 0 0 0 0 0 0 0 0 0 0
1 1 1 1 1 1 1 1 1 1 1 0 0 0 0 0 0 0 0 0 0 0 0 0 0 0 0 0 0 0 0 0 0 0 0 0 0 0 0 0 0 0 0
2 2 2 1 1 1 1 1 1 1 1 0 0 0 0 0 0 0 0 0 0 0 0 0 0 0 0 0 0 0 0 0 0 0 0 0 0 0 0 0 0 0 0
2 2 2 1 1 1 1 1 1 1 1 1 0 0 0 0 0 0 0 0 0 0 0 0 0 0 0 0 0 0 0 0 0 0 0 0 0 0 0 0 0 0 0
2 2 2 1 1 1 1 1 1 1 1 1 1 1 1 1 1 1 0 0 0 0 0 0 0 0 0 0 0 0 0 0 0 0 0 0 0 0 0 0 0 0 0
1 1 1 1 1 1 1 1 1 1 1 1 1 1 1 1 1 1 1 1 1 0 0 0 0 0 0 0 1 1 1 0 0 0 0 0 0 0 0 0 0 0 0
1 1 1 1 1 1 1 1 1 1 1 1 1 1 1 1 1 1 1 1 1 1 1 1 1 1 1 1 1 1 1 1 0 0 1 1 1 1 1 1 0 0 0
1 1 1 1 2 2 1 1 1 1 1 1 1 1 1 1 0 1 1 1 1 1 1 1 1 1 1 1 1 1 1 1 1 1 1 1 1 1 1 1 1 0 0
1 1 1 1 2 1 1 1 1 1 1 1 1 1 0 0 0 0 1 1 1 1 1 1 1 1 1 1 1 1 1 1 1 1 1 1 1 1 1 1 1 1 1
1 1 1 1 1 1 1 1 1 1 0 0 0 0 0 0 0 0 0 1 1 1 1 1 1 1 1 1 1 1 1 1 1 1 1 1 1 1 1 1 1 1 1
1 1 1 1 1 1 1 1 1 0 0 0 0 0 0 0 0 0 0 0 0 0 0 1 1 1 1 1 1 1 1 1 1 1 1 1 1 1 1 1 1 1 1
1 1 1 1 1 1 1 0 0 0 0 0 0 0 0 0 0 0 0 0 0 0 0 0 0 1 1 1 1 1 1 1 1 1 1 1 1 1 1 1 1 1 1
1 1 1 1 0 0 0 0 0 0 0 0 0 0 0 0 0 0 0 0 0 0 0 0 0 0 0 1 1 1 1 1 1 1 1 1 1 1 1 1 1 1 1
1 0 0 0 0 0 0 0 0 0 0 0 0 0 0 0 0 0 0 0 0 0 0 0 0 0 0 1 1 1 1 1 1 1 1 1 1 1 1 1 1 1 1
1 1 0 0 0 0 0 0 0 0 0 0 0 0 0 0 0 0 0 0 0 0 0 0 0 0 0 0 0 1 1 1 0 1 1 1 1 1 1 1 1 1 1
1 1 1 0 0 0 0 0 0 0 0 0 0 0 0 0 0 0 0 0 0 0 0 0 0 0 0 0 0 0 0 0 0 0 0 0 1 1 1 1 1 1 1
1 1 1 0 0 0 0 0 0 0 0 0 0 0 0 0 0 0 0 0 0 0 0 0 0 0 0 0 0 0 0 0 0 0 0 0 0 1 1 1 1 1 1
1 1 1 0 0 0 0 0 0 0 0 0 0 0 0 0 0 0 0 0 0 0 0 0 0 0 0 0 0 0 0 0 0 0 0 0 0 0 0 1 1 1 1
1 1 0 0 0 0 0 0 0 0 0 0 0 0 0 0 0 0 0 0 0 0 0 0 0 0 0 0 0 0 0 0 0 0 0 0 0 0 0 0 1 1 1
1 0 0 0 0 0 0 0 0 0 0 0 0 0 0 0 0 0 0 0 0 0 0 0 0 0 0 0 0 0 0 0 0 0 0 0 0 0 0 0 0 1 1
0 0 0 0 0 0 0 0 0 0 0 0 0 0 0 0 0 0 0 0 0 0 0 0 0 0 0 0 0 0 0 0 0 0 0 0 0 0 0 0 0 0 0
0 0 0 0 0 0 0 0 0 0 0 0 0 0 0 0 0 0 0 0 0 0 0 0 0 0 0 0 0 0 0 0 0 0 0 0 0 0 0 0 0 0 0
0 0 0 0 0 0 0 0 0 0 0 0 0 0 0 0 0 0 0 0 0 0 0 0 0 0 0 0 0 0 0 0 0 0 0 0 0 0 0 0 0 0 0
Wind_Speed
6 7 13 15 15 16 16 16 16 16 16 15 15 14 14 13 13 12 11 10 10 9 9 9 9 9 9 9 9 9 9 9 9 10 11 11 12 13 13 14 14 11 15
9 9 14 15 15 15 16 15 15 15 15 14 14 13 13 12 11 11 10 10 9 9 9 9 9 9 9 9 9 9 9 8 9 10 11 11 12 13 13 14 13 10 15
11 9 12 14 15 15 15 15 14 14 14 13 13 12 11 11 10 9 9 9 9 8 8 8 8 8 8 9 9 9 8 8 9 10 10 6 8 12 13 14 14 14 14
10 8 10 14 14 15 14 14 14 14 13 12 12 11 10 10 9 9 8 8 8 8 8 8 8 8 8 8 8 8 8 8 9 9 5 5 6 12 13 13 13 14 13
8 7 10 16 15 14 14 13 13 13 12 12 11 10 9 9 8 8 7 7 7 7 7 7 7 7 7 7 7 6 6 7 8 7 5 4 5 11 13 13 13 13 13
7 6 9 15 15 14 14 13 13 12 12 11 10 9 8 8 7 6 6 6 6 5 6 6 6 6 6 6 5 5 5 6 7 5 5 5 5 10 13 13 13 13 12
6 5 8 14 14 14 13 13 13 12 11 10 9 8 7 7 6 5 5 5 4 4 4 4 5 5 4 4 4 4 4 6 5 4 5 5 5 10 12 13 13 12 12
7 6 7 14 14 14 14 13 12 11 11 10 9 8 7 6 5 4 4 3 3 3 3 3 3 4 3 2 2 2 3 5 5 4 5 5 6 9 12 12 12 12 12
5 5 5 6 9 13 13 12 11 11 10 9 8 7 6 5 5 4 3 3 3 3 3 3 3 3 3 2 1 1 2 4 4 3 5 4 7 9 11 12 12 13 12
5 4 4 4 5 5 6 10 11 10 9 8 8 7 5 4 3 2 1 2 2 2 3 3 3 3 2 2 1 1 1 3 3 2 2 4 9 11 12 12 13 13 12
5 3 3 4 4 4 4 7 8 8 8 6 4 5 4 2 2 2 1 1 2 2 2 2 2 2 1 1 0 0 2 1 2 2 2 5 9 11 12 13 13 13 12
6 5 3 4 4 4 4 4 3 3 4 4 3 4 3 3 2 3 4 4 2 1 1 1 1 1 1 1 1 1 1 1 1 2 3 7 9 12 13 13 13 13 13
6 6 4 4 4 3 3 3 3 3 3 3 4 4 3 3 2 3 2 3 3 4 3 3 3 2 1 1 1 1 1 1 1 1 2 6 8 11 12 14 14 14 13
6 5 5 4 4 3 3 3 3 3 2 2 3 3 3 2 2 2 2 2 2 2 2 2 1 2 2 1 1 0 0 0 1 1 2 6 8 10 12 13 14 14 14
6 5 5 5 5 4 4 3 4 3 3 3 3 3 3 3 2 2 2 2 2 2 2 2 2 2 2 2 1 0 0 1 1 1 2 6 7 9 11 13 14 14 14
5 5 5 5 5 5 4 4 3 3 3 3 2 3 3 2 2 2 2 2 2 2 2 2 2 2 2 1 1 1 1 1 1 2 2 4 6 7 10 12 14 14 15
6 5 5 6 5 5 5 4 4 3 3 3 2 2 3 3 3 3 2 2 2 2 2 2 3 2 2 2 2 2 1 1 2 2 3 3 3 6 9 11 12 12 13
6 5 5 6 6 6 5 4 3 3 3 3 2 2 3 3 3 3 3 2 2 2 2 2 2 2 2 2 2 2 2 2 2 2 3 3 3 3 5 9 11 12 13
6 6 5 5 7 6 5 4 4 3 3 2 2 2 2 3 3 3 3 2 2 3 3 2 3 2 2 3 2 1 2 2 2 2 2 3 3 3 3 5 8 10 13
5 6 5 6 6 6 4 4 3 3 2 2 2 2 3 2 3 3 3 3 3 3 3 2 3 3 2 2 2 2 2 2 2 3 3 2 2 2 2 3 2 5 10
6 6 6 6 6 5 4 3 3 2 2 1 1 2 2 2 3 3 2 2 2 3 2 2 2 3 3 3 2 3 3 3 3 4 4 3 3 3 1 1 2 2 3
7 7 6 7 7 6 4 3 3 3 2 1 1 1 2 2 3 3 3 2 2 2 3 3 2 2 3 4 2 2 3 4 4 4 4 5 5 4 4 3 1 1 2
8 9 8 7 7 6 5 4 4 3 3 2 1 1 1 2 2 2 3 2 2 2 2 2 2 2 2 3 2 2 2 0 3 3 3 5 5 4 4 4 4 3 2
9 7 7 7 6 6 6 6 6 4 3 3 2 2 1 1 2 3 3 3 2 2 2 1 2 1 2 1 2 2 1 1 0 2 3 3 5 5 5 4 5 4 4
8 7 6 6 6 5 6 6 5 4 3 2 1 2 1 0 1 3 3 3 3 2 2 1 2 1 1 1 1 1 2 2 1 1 2 4 4 3 4 4 3 4 4
6 7 7 7 6 6 6 6 6 6 5 4 3 3 1 1 1 2 3 3 3 2 2 2 2 2 1 1 1 1 1 1 1 1 1 2 3 3 3 3 3 3 3
Wind_Direction
153 156 151 144 136 130 127 125 123 121 120 120 120 121 122 123 125 125 124 122 120 117 112 108 105 105 104 103 100 99 101 103 108 112 115 119 122 123 122 120 117 116 117
143 150 152 146 140 134 130 128 126 125 124 124 124 124 125 126 127 127 126 123 120 116 112 109 108 107 104 103 102 101 102 105 110 114 117 120 124 125 124 122 121 122 123
137 145 151 147 143 138 133 131 129 129 129 128 127 128 128 129 129 129 127 125 122 120 117 114 110 108 106 104 104 102 103 106 110 111 109 108 123 129 128 126 127 125 126
137 139 150 148 144 141 137 135 133 133 133 133 132 133 133 133 134 134 131 129 126 123 121 120 116 112 109 106 105 103 104 107 111 111 100 113 125 134 133 130 130 130 130
129 135 154 150 148 145 142 139 138 137 138 139 138 139 140 141 142 140 136 135 133 131 130 126 123 119 116 113 109 105 104 108 112 108 107 110 116 139 136 135 133 131 131
122 132 152 150 148 147 145 142 141 141 142 143 143 145 147 148 147 145 143 142 142 142 137 133 130 128 124 120 116 110 105 108 108 112 118 124 130 143 142 139 137 134 133
127 132 145 148 148 147 146 145 146 146 147 148 149 151 153 153 153 153 153 151 150 152 150 146 143 139 135 128 118 111 105 113 112 121 132 136 146 149 147 143 141 140 139
129 127 140 150 150 149 149 150 150 150 151 152 153 154 155 155 156 160 159 159 165 173 171 171 168 160 152 140 116 101 103 108 116 131 141 148 160 156 153 149 146 146 145
117 119 125 141 149 152 153 152 152 151 151 151 151 152 155 157 159 164 171 182 185 189 195 196 199 194 182 176 166 116 117 115 117 135 156 160 172 167 162 158 155 153 152
112 113 117 120 125 134 146 152 152 151 150 150 153 155 155 149 153 163 178 213 210 210 214 216 222 224 218 206 203 186 125 111 129 145 155 175 180 178 172 169 166 162 161
140 120 120 121 121 122 134 150 147 146 142 134 133 129 111 68 43 28 6 246 232 238 237 243 245 241 239 248 262 103 94 115 152 166 171 190 188 188 183 178 175 172 169
164 159 143 141 137 135 142 114 98 96 93 87 82 83 77 70 53 53 25 26 23 351 324 358 357 358 34 48 5 58 98 150 181 195 201 204 199 197 193 187 182 180 178
165 169 161 153 142 135 116 113 97 91 90 87 89 91 84 70 51 41 32 20 18 25 24 24 30 29 40 64 70 87 145 172 194 208 215 217 208 204 200 195 189 186 185
161 171 161 149 139 135 120 114 111 108 102 98 95 94 91 78 59 46 40 25 28 23 29 30 31 27 26 30 64 103 156 204 222 211 240 242 225 213 208 199 193 190 190
164 168 161 149 146 139 127 127 119 116 116 114 103 94 101 100 87 67 48 41 37 37 47 39 33 25 23 16 12 42 198 241 262 240 254 261 245 226 215 204 199 195 194
164 163 153 151 146 139 136 126 123 121 118 112 107 107 101 101 96 80 57 42 33 30 43 54 52 38 8 2 355 337 307 275 264 260 254 270 266 242 224 213 208 204 200
162 154 155 152 139 136 137 136 129 129 124 119 116 109 102 98 95 90 74 50 28 28 49 56 47 41 27 11 356 344 346 318 294 279 271 261 269 260 241 226 217 212 211
152 155 165 156 143 137 137 133 129 131 126 122 119 112 109 103 104 96 84 60 34 42 52 62 44 39 22 11 352 342 347 331 311 289 270 260 254 258 252 237 223 216 217
156 155 159 145 142 138 132 126 122 117 116 120 118 116 116 106 103 97 86 66 51 54 47 53 51 44 20 358 337 358 357 346 333 326 303 274 256 251 250 251 239 228 227
151 153 155 142 134 126 117 106 95 94 100 113 129 141 135 121 114 102 89 71 63 64 50 47 56 42 27 349 345 5 1 359 6 11 353 336 309 279 258 256 253 249 240
158 158 158 148 145 142 135 134 135 145 145 144 167 163 151 141 131 116 102 84 73 71 58 49 62 43 23 0 26 6 355 7 25 26 14 19 15 1 341 274 254 250 254
175 175 165 162 160 164 153 144 141 133 139 145 138 146 171 160 151 140 127 114 100 86 60 44 51 58 25 23 51 58 12 359 358 11 12 28 24 21 21 11 339 280 262
185 185 177 173 166 162 144 120 99 81 69 83 129 188 212 186 171 152 149 139 126 110 96 66 58 78 56 23 35 93 100 10 318 335 3 17 15 25 17 11 15 359 331
195 183 171 170 164 160 152 151 150 155 169 193 185 188 203 193 185 174 165 154 144 130 123 105 92 85 96 48 24 38 74 149 87 336 335 353 2 17 9 9 9 6 2
184 176 169 164 164 162 162 162 153 152 163 152 145 167 183 219 209 189 171 162 163 158 155 142 125 116 114 121 79 57 65 56 69 108 324 334 342 344 351 355 360 1 3
173 172 166 167 173 168 165 164 163 164 162 158 168 173 187 210 239 194 172 171 175 176 184 184 169 158 157 146 145 147 144 139 148 139 251 310 317 314 325 334 353 355 358